CORIOLIS

Last updated on Mon Sep 21 2026 00:03:33 GMT+0000 (Coordinated Universal Time)

1 27640U 03001A 26263.46502872 .00000034 00000+0 36728-4 0 9992 2 27640 98.7172 268.9136 0013015 301.1963 58.7938 14.19967095227746
UTC large
Height (km)
Speed (km/s)
/
Latitude / Longitude
Inclination (degrees)
Orbital Period (minutes)
Azimuth
Elevation
Range (km)
Doppler Factor

Next 0 passes for location: London (51.5072 / 0.1276)

No passes found over London.
CORIOLIS